General Vedia, Argentina
Current Conditions -  °F | °C
As of 1:00 AM on Friday 31 Oct 2014 (Local Time) from SARC Reporting Station
Clear Clear  
Wind Chill: 68°   Ceiling: Unl
Heat Index: 68°   Visibility: 6mi
Dew Point: 66°   Wind: 3mph
Humidity: 94%   Direction: 160°SSE
Pressure: 29.8"   Gusts: NA
Location:  26.93°S, 58.66°W
Report Text: SARC 310400Z 16003KT CAVOK 20/19 Q1009
Loading
Personal Weather Stations






























Interactive Weather Map
Tropical Storm Tracking
New forecast layout! Learn more

10-Day Weather Forecast

Advertisements
Track Severe Weather on mobile